Unicom:                    122.8

AWOS:                  118.275

Elevation           1458’ MSL

TPA:                   2500’ MSL

06/24:         5003’ L   75’ W

PAPI:       06/Left     24/Left

(Operate lights on unicom freq.)

Traffic Pattern: Left

Beacon: Sunset to Sunrise

Windsock: yes, lighted

Segmented Circle: No

 

Cleveland Center: 126.72/291.65

FSS: Altoona

[Source: ADDS]
METAR
KFKL 191556Z AUTO 13006KT 10SM -RA OVC005 11/10 A3023 RMK AO2 CIG 003V008 SLP239 P0002 T01060100 =
KFKL 191504Z 1915/2012 14006KT 6SM -RA BR OVC003 FM192100 16005KT 6SM -RA OVC005 WS020/23040KT FM200800 VRB03KT 2SM -RA BR OVC002 WS020/23040KT
TAF
KFKL 191504Z 1915/2012 14006KT 6SM -RA BR OVC003 FM192100 16005KT 6SM -RA OVC005 WS020/23040KT FM200800 VRB03KT 2SM -RA BR OVC002 WS020/23040KT =
[Source: ADDS]
METAR
KDUJ 191553Z AUTO 12006KT 5SM -RA BR FEW038 BKN080 OVC090 09/07 A3024 RMK AO2 SLP241 P0010 T00890072 =
KDUJ 191504Z 1915/2012 12003KT 4SM -RA BR OVC040 FM191700 00000KT 6SM -RA OVC015 FM191900 16005KT 4SM -RA BR OVC004 FM192200 17006KT P6SM OVC008 WS020/23030KT FM200900 19006KT 5SM -RA OVC004 WS020/23030KT
TAF
KDUJ 191504Z 1915/2012 12003KT 4SM -RA BR OVC040 FM191700 00000KT 6SM -RA OVC015 FM191900 16005KT 4SM -RA BR OVC004 FM192200 17006KT P6SM OVC008 WS020/23030KT FM200900 19006KT 5SM -RA OVC004 WS020/23030KT =

About Us.

            

Clarion County Airport Authority

Overview -The Clarion County Airport Authority is a municipal authority created in 1967, under the Municipal Authorities Act of 1945.  The original purpose of the Authority was to site and construct a facility to replace Rhea Airport, a small grass airport at the US 322, PA 66 intersection, which was closed due to planned highway construction.

    The Airport Authority completed construction of the Clarion County Airport in 1975, and is responsible for overall operation of the airport.   The day to day responsibilities of airport operations are delegated to the Airport Manager, who is one of two employees of the Authority. 

 

    The Clarion County Airport supports the needs of business and recreational flyers in the area.  It’s close proximity to both Cook Forest State Park and the Allegheny National Forest affords the Airport the opportunity to provide airport users access to numerous hunting, fishing, golfing and camping activities.  In doing so, the Airport supports many of the region’s primary economic activities.


     Mission Statement  – The mission of the Clarion County Airport Authority is to provide the citizens of Clarion County and surrounding areas with safe and efficient access to the National Air Transportation System by providing and operating a general aviation business service airport.   The administration of the airport will be done in a manner that emphasizes safety and economic development for the Clarion County area, while utilizing resources in a way that will result in the most efficient use of public funds, and resulting in the least possible expense to the County taxpayers.

 

2018 Authority Officers

      Dr. Norm Wagner      President                                                                                                                                                         

      Dave Cyphert             Vice President

      Andrew Kirby             Secretary

      David Cox                   Treasurer